Flag for Denmark Weather past 2 weeks in Horsens, Denmark

Now
79 °F

Passing clouds.


Feels Like: 81 °F
Forecast: 58 / 82 °F
Wind: 6 mph from West

Location: Billund Lufthavn

Current Time: Jul 3, 2015 at 8:29:47 PM

Latest Report: Jul 3, 2015 at 7:50 PM


Visibility: N/A

Pressure: 30.24 "Hg

Humidity: 65%

Dew point: 66 °F

Location of HorsensLocation

Historic Weather in Horsens — Graph

°F

Horsens temperature yesterday

Maximum temperature yesterday: 81 °F (at 1:50 PM)
Minimum temperature yesterday: 59 °F (at 3:50 AM)
Average temperature yesterday: 70 °F

Past Weeks' High & Low Weather Summary

 TemperatureHumidityPressure
High82 °F (Jul 3, 5:20 PM)100% (Jun 19, 11:50 PM)30.27 "Hg (Jun 19, 11:50 PM)
Low36 °F (Jun 23, 4:50 AM)37% (Jul 2, 12:50 PM)29.62 "Hg (Jun 22, 7:20 PM)
Average58 °F76%30.02 "Hg
* Reported Jun 18 7:20 PM — Jul 3 7:20 PM, Horsens, Weather by CustomWeather, © 2015

Note: Actual official high and low records may vary slightly from our data, if they occured in-between our weather recording intervals... More about our weather records

Advertising

Horsens weather history for previous 24 hours

 ConditionsComfort  
Time TempWeatherWind HumidityBarometerVisibility
7:20 PM
Fri, Jul 3
81 °FWarm.6 mph58%30.24 "HgN/A
6:50 PM81 °FWarm.7 mph58%30.24 "HgN/A
6:20 PM81 °FScattered clouds.7 mph58%30.24 "HgN/A
5:50 PM82 °FPassing clouds.3 mph51%30.27 "HgN/A
5:20 PM82 °FPartly sunny.3 mph55%30.27 "HgN/A
4:50 PM81 °FPassing clouds.3 mph51%30.27 "HgN/A
4:20 PM81 °FPassing clouds.1 mph54%30.27 "HgN/A
3:50 PM81 °FScattered clouds.5 mph58%30.27 "HgN/A
3:20 PM81 °FPassing clouds.5 mph54%30.27 "HgN/A
2:50 PM79 °FPassing clouds.5 mph61%30.27 "HgN/A
2:20 PM81 °FWarm.5 mph58%30.27 "HgN/A
1:50 PM79 °FPassing clouds.8 mph61%30.27 "HgN/A
1:20 PM79 °FWarm.8 mph65%30.27 "HgN/A
12:50 PM77 °FPassing clouds.7 mph65%30.27 "HgN/A
12:20 PM75 °FPartly sunny.7 mph69%30.27 "HgN/A
11:50 AM75 °FPassing clouds.9 mph69%30.27 "HgN/A
11:20 AM75 °FPassing clouds.12 mph69%30.27 "HgN/A
10:50 AM73 °FPassing clouds.12 mph69%30.27 "HgN/A
10:20 AM72 °FMild.13 mph73%30.27 "HgN/A
9:50 AM72 °FScattered clouds.6 mph69%30.27 "HgN/A
9:20 AM70 °FPassing clouds.3 mph73%30.27 "HgN/A
8:50 AM68 °FScattered clouds.2 mph73%30.24 "HgN/A
8:20 AM68 °FScattered clouds.6 mph73%30.24 "HgN/A
7:50 AM66 °FPassing clouds.9 mph78%30.24 "HgN/A
7:20 AM66 °FPassing clouds.9 mph73%30.24 "HgN/A
6:50 AM66 °FMild.8 mph73%30.24 "HgN/A
6:20 AM64 °FMild.7 mph78%30.24 "HgN/A
5:50 AM64 °FPassing clouds.3 mph78%30.24 "HgN/A
5:20 AM63 °FMild.2 mph77%30.24 "HgN/A
4:50 AM63 °FMild.2 mph77%30.24 "HgN/A
4:20 AM63 °FMild.1 mph77%30.24 "HgN/A
3:50 AM64 °FMild.9 mph73%30.24 "HgN/A
3:20 AM64 °FPassing clouds.7 mph73%30.27 "HgN/A
2:50 AM66 °FPassing clouds.9 mph68%30.27 "HgN/A
2:20 AM63 °FMild.8 mph77%30.24 "HgN/A
1:50 AM63 °FMild.9 mph77%30.24 "HgN/A
1:20 AM63 °FMild.8 mph73%30.24 "HgN/A
12:50 AM64 °FMild.10 mph68%30.24 "HgN/A
12:20 AM64 °FMild.12 mph68%30.21 "HgN/A
11:50 PM
Thu, Jul 2
64 °FMild.13 mph68%30.21 "HgN/A
11:20 PM66 °FMild.10 mph64%30.24 "HgN/A
10:50 PM66 °FMild.10 mph64%30.24 "HgN/A
10:20 PM68 °FMild.9 mph56%30.24 "HgN/A
9:50 PM70 °FMild.12 mph53%30.21 "HgN/A
9:20 PM72 °FMild.13 mph50%30.21 "HgN/A
8:50 PM72 °FMild.13 mph53%30.21 "HgN/A
8:20 PM73 °FMild.15 mph50%30.21 "HgN/A
Weather by CustomWeather, © 2015

See weather overviewHow to use our weather pages